Time,TemperatureF,DewpointF,PressureIn,WindDirection,WindDirectionDegrees,WindSpeedMPH,WindSpeedGustMPH,Humidity,HourlyPrecipIn,Conditions,Clouds,dailyrainin,SoftwareType,DateUTC
2013-03-09 00:00:00,42.3,31.4,30.24,NNW,342,5.0,5.0,65,0.00,,,0.00,Wunderground v.1.15,2013-03-09 05:00:00,
2013-03-09 00:05:00,42.1,31.2,30.24,NW,321,4.0,9.0,65,0.00,,,0.00,Wunderground v.1.15,2013-03-09 05:05:00,
2013-03-09 00:10:00,41.9,31.4,30.24,NNW,329,4.0,4.0,66,0.00,,,0.00,Wunderground v.1.15,2013-03-09 05:10:00,
2013-03-09 00:15:00,41.8,31.3,30.24,NNE,18,5.0,6.0,66,0.00,,,0.00,Wunderground v.1.15,2013-03-09 05:15:00,
2013-03-09 00:20:00,41.8,31.3,30.24,NNW,347,5.0,9.0,66,0.00,,,0.00,Wunderground v.1.15,2013-03-09 05:20:00,
2013-03-09 00:25:00,41.8,31.3,30.24,NW,321,5.0,9.0,66,0.00,,,0.00,Wunderground v.1.15,2013-03-09 05:25:00,
2013-03-09 00:30:00,41.7,31.5,30.24,NNW,328,5.0,9.0,67,0.00,,,0.00,Wunderground v.1.15,2013-03-09 05:30:00,
2013-03-09 00:35:00,41.4,31.3,30.24,NNW,347,5.0,9.0,67,0.00,,,0.00,Wunderground v.1.15,2013-03-09 05:35:00,
2013-03-09 00:40:00,41.2,31.1,30.25,NNW,339,5.0,5.0,67,0.00,,,0.00,Wunderground v.1.15,2013-03-09 05:40:00,
2013-03-09 00:45:00,40.8,31.4,30.25,NNW,330,4.0,9.0,69,0.00,,,0.00,Wunderground v.1.15,2013-03-09 05:45:00,
2013-03-09 00:50:00,40.5,31.8,30.25,NNW,334,3.0,3.0,71,0.00,,,0.00,Wunderground v.1.15,2013-03-09 05:50:00,
2013-03-09 00:55:00,40.3,31.6,30.25,NNW,332,4.0,7.0,71,0.00,,,0.00,Wunderground v.1.15,2013-03-09 05:55:00,
2013-03-09 01:00:00,40.3,31.3,30.25,NW,326,5.0,9.0,70,0.00,,,0.00,Wunderground v.1.15,2013-03-09 06:00:00,
2013-03-09 01:05:00,40.3,31.3,30.25,North,1,5.0,9.0,70,0.00,,,0.00,Wunderground v.1.15,2013-03-09 06:05:00,
2013-03-09 01:10:00,40.2,31.2,30.25,NW,322,6.0,6.0,70,0.00,,,0.00,Wunderground v.1.15,2013-03-09 06:10:00,
2013-03-09 01:15:00,40.2,31.2,30.25,NW,312,6.0,9.0,70,0.00,,,0.00,Wunderground v.1.15,2013-03-09 06:15:00,
2013-03-09 01:20:00,40.3,31.3,30.26,NW,321,6.0,9.0,70,0.00,,,0.00,Wunderground v.1.15,2013-03-09 06:20:00,
2013-03-09 01:25:00,40.4,31.4,30.25,NNW,328,6.0,9.0,70,0.00,,,0.00,Wunderground v.1.15,2013-03-09 06:25:00,
2013-03-09 01:30:00,40.4,31.4,30.25,NW,312,6.0,9.0,70,0.00,,,0.00,Wunderground v.1.15,2013-03-09 06:30:00,
2013-03-09 01:35:00,40.6,31.6,30.25,North,6,6.0,9.0,70,0.00,,,0.00,Wunderground v.1.15,2013-03-09 06:35:00,
2013-03-09 01:40:00,40.7,31.3,30.25,NNW,338,6.0,9.0,69,0.00,,,0.00,Wunderground v.1.15,2013-03-09 06:40:00,
2013-03-09 01:45:00,40.7,31.3,30.25,NW,316,6.0,9.0,69,0.00,,,0.00,Wunderground v.1.15,2013-03-09 06:45:00,
2013-03-09 01:50:00,40.5,31.5,30.25,NNW,333,6.0,6.0,70,0.00,,,0.00,Wunderground v.1.15,2013-03-09 06:50:00,
2013-03-09 01:55:00,40.3,31.3,30.25,NW,323,5.0,9.0,70,0.00,,,0.00,Wunderground v.1.15,2013-03-09 06:55:00,
2013-03-09 02:00:00,40.3,31.3,30.25,NW,318,5.0,9.0,70,0.00,,,0.00,Wunderground v.1.15,2013-03-09 07:00:00,
2013-03-09 02:10:00,40.1,31.1,30.25,NNW,342,5.0,9.0,70,0.00,,,0.00,Wunderground v.1.15,2013-03-09 07:10:00,
2013-03-09 02:15:00,39.9,31.3,30.25,NNW,333,6.0,9.0,71,0.00,,,0.00,Wunderground v.1.15,2013-03-09 07:15:00,
2013-03-09 02:20:00,39.7,31.1,30.25,NNE,22,6.0,9.0,71,0.00,,,0.00,Wunderground v.1.15,2013-03-09 07:20:00,
2013-03-09 02:25:00,39.6,31.3,30.25,WNW,299,6.0,9.0,72,0.00,,,0.00,Wunderground v.1.15,2013-03-09 07:25:00,
2013-03-09 02:30:00,39.5,31.2,30.25,North,356,5.0,9.0,72,0.00,,,0.00,Wunderground v.1.15,2013-03-09 07:30:00,
2013-03-09 02:35:00,39.3,31.0,30.24,NNW,333,5.0,9.0,72,0.00,,,0.00,Wunderground v.1.15,2013-03-09 07:35:00,
2013-03-09 02:40:00,39.3,31.0,30.24,NNW,336,6.0,9.0,72,0.00,,,0.00,Wunderground v.1.15,2013-03-09 07:40:00,
2013-03-09 02:45:00,39.1,30.8,30.24,NW,312,6.0,9.0,72,0.00,,,0.00,Wunderground v.1.15,2013-03-09 07:45:00,
2013-03-09 02:50:00,38.9,30.6,30.24,NW,307,5.0,5.0,72,0.00,,,0.00,Wunderground v.1.15,2013-03-09 07:50:00,
2013-03-09 02:55:00,38.8,30.9,30.23,NNW,345,6.0,6.0,73,0.00,,,0.00,Wunderground v.1.15,2013-03-09 07:55:00,
2013-03-09 03:00:00,38.7,30.8,30.24,NNW,345,5.0,5.0,73,0.00,,,0.00,Wunderground v.1.15,2013-03-09 08:00:00,
2013-03-09 03:05:00,38.6,30.7,30.24,NNW,338,5.0,9.0,73,0.00,,,0.00,Wunderground v.1.15,2013-03-09 08:05:00,
2013-03-09 03:10:00,38.5,30.6,30.23,NNW,332,5.0,9.0,73,0.00,,,0.00,Wunderground v.1.15,2013-03-09 08:10:00,
2013-03-09 03:15:00,38.5,30.6,30.24,NNW,334,5.0,9.0,73,0.00,,,0.00,Wunderground v.1.15,2013-03-09 08:15:00,
2013-03-09 03:20:00,38.4,30.5,30.24,North,354,6.0,9.0,73,0.00,,,0.00,Wunderground v.1.15,2013-03-09 08:20:00,
2013-03-09 03:25:00,38.4,30.5,30.24,NNW,328,6.0,9.0,73,0.00,,,0.00,Wunderground v.1.15,2013-03-09 08:25:00,
2013-03-09 03:30:00,38.3,30.7,30.24,NW,325,6.0,6.0,74,0.00,,,0.00,Wunderground v.1.15,2013-03-09 08:30:00,
2013-03-09 03:35:00,38.3,30.7,30.24,NW,321,6.0,9.0,74,0.00,,,0.00,Wunderground v.1.15,2013-03-09 08:35:00,
2013-03-09 03:40:00,38.1,30.5,30.24,North,356,5.0,5.0,74,0.00,,,0.00,Wunderground v.1.15,2013-03-09 08:40:00,
2013-03-09 03:45:00,38.1,30.5,30.24,NNW,340,5.0,7.0,74,0.00,,,0.00,Wunderground v.1.15,2013-03-09 08:45:00,
2013-03-09 03:50:00,38.0,30.8,30.24,North,350,5.0,5.0,75,0.00,,,0.00,Wunderground v.1.15,2013-03-09 08:50:00,
2013-03-09 03:55:00,37.8,30.6,30.24,NNE,20,5.0,9.0,75,0.00,,,0.00,Wunderground v.1.15,2013-03-09 08:55:00,
2013-03-09 04:00:00,37.7,30.5,30.24,NW,324,5.0,5.0,75,0.00,,,0.00,Wunderground v.1.15,2013-03-09 09:00:00,
2013-03-09 04:05:00,37.6,30.7,30.24,North,11,4.0,10.0,76,0.00,,,0.00,Wunderground v.1.15,2013-03-09 09:05:00,
2013-03-09 04:10:00,37.5,30.6,30.24,NW,323,4.0,10.0,76,0.00,,,0.00,Wunderground v.1.15,2013-03-09 09:10:00,
2013-03-09 04:15:00,37.5,30.6,30.24,NNW,344,5.0,10.0,76,0.00,,,0.00,Wunderground v.1.15,2013-03-09 09:15:00,
2013-03-09 04:25:00,37.3,30.4,30.24,NNW,342,5.0,10.0,76,0.00,,,0.00,Wunderground v.1.15,2013-03-09 09:25:00,
2013-03-09 04:30:00,37.4,30.5,30.25,North,352,5.0,5.0,76,0.00,,,0.00,Wunderground v.1.15,2013-03-09 09:30:00,
2013-03-09 04:35:00,37.4,30.5,30.25,NW,321,5.0,10.0,76,0.00,,,0.00,Wunderground v.1.15,2013-03-09 09:35:00,
2013-03-09 04:40:00,37.4,30.5,30.25,NNE,15,5.0,5.0,76,0.00,,,0.00,Wunderground v.1.15,2013-03-09 09:40:00,
2013-03-09 04:45:00,37.3,30.4,30.25,North,354,5.0,10.0,76,0.00,,,0.00,Wunderground v.1.15,2013-03-09 09:45:00,
2013-03-09 04:50:00,37.3,30.4,30.25,NNW,337,5.0,10.0,76,0.00,,,0.00,Wunderground v.1.15,2013-03-09 09:50:00,
2013-03-09 04:55:00,37.2,30.7,30.25,North,354,5.0,10.0,77,0.00,,,0.00,Wunderground v.1.15,2013-03-09 09:55:00,
2013-03-09 05:00:00,37.2,30.7,30.25,West,281,5.0,8.0,77,0.00,,,0.00,Wunderground v.1.15,2013-03-09 10:00:00,
2013-03-09 05:10:00,37.2,30.7,30.25,North,356,5.0,8.0,77,0.00,,,0.00,Wunderground v.1.15,2013-03-09 10:10:00,
2013-03-09 05:15:00,37.2,30.7,30.26,NNE,32,5.0,8.0,77,0.00,,,0.00,Wunderground v.1.15,2013-03-09 10:15:00,
2013-03-09 05:20:00,37.3,30.7,30.26,NW,318,5.0,5.0,77,0.00,,,0.00,Wunderground v.1.15,2013-03-09 10:20:00,
2013-03-09 05:25:00,37.4,30.8,30.26,North,352,5.0,8.0,77,0.00,,,0.00,Wunderground v.1.15,2013-03-09 10:25:00,
2013-03-09 05:30:00,37.5,30.6,30.26,NW,311,5.0,5.0,76,0.00,,,0.00,Wunderground v.1.15,2013-03-09 10:30:00,
2013-03-09 05:35:00,37.6,30.7,30.26,North,358,5.0,8.0,76,0.00,,,0.00,Wunderground v.1.15,2013-03-09 10:35:00,
2013-03-09 05:40:00,37.6,30.7,30.26,NNE,16,5.0,5.0,76,0.00,,,0.00,Wunderground v.1.15,2013-03-09 10:40:00,
2013-03-09 05:45:00,37.6,30.7,30.26,NNW,347,5.0,6.0,76,0.00,,,0.00,Wunderground v.1.15,2013-03-09 10:45:00,
2013-03-09 05:50:00,37.6,30.7,30.26,NNW,329,5.0,8.0,76,0.00,,,0.00,Wunderground v.1.15,2013-03-09 10:50:00,
2013-03-09 05:55:00,37.6,30.7,30.26,North,352,5.0,8.0,76,0.00,,,0.00,Wunderground v.1.15,2013-03-09 10:55:00,
2013-03-09 06:00:00,37.6,30.7,30.26,NNE,15,5.0,5.0,76,0.00,,,0.00,Wunderground v.1.15,2013-03-09 11:00:00,
2013-03-09 06:05:00,37.6,30.7,30.27,NNW,340,5.0,10.0,76,0.00,,,0.00,Wunderground v.1.15,2013-03-09 11:05:00,
2013-03-09 06:10:00,37.5,30.6,30.27,NNE,15,5.0,10.0,76,0.00,,,0.00,Wunderground v.1.15,2013-03-09 11:10:00,
2013-03-09 06:15:00,37.5,30.6,30.27,North,11,5.0,10.0,76,0.00,,,0.00,Wunderground v.1.15,2013-03-09 11:15:00,
2013-03-09 06:20:00,37.4,30.5,30.27,NNW,342,4.0,10.0,76,0.00,,,0.00,Wunderground v.1.15,2013-03-09 11:20:00,
2013-03-09 06:25:00,37.3,30.4,30.27,NNW,328,5.0,10.0,76,0.00,,,0.00,Wunderground v.1.15,2013-03-09 11:25:00,
2013-03-09 06:30:00,37.3,30.7,30.27,NNW,332,5.0,10.0,77,0.00,,,0.00,Wunderground v.1.15,2013-03-09 11:30:00,
2013-03-09 06:35:00,37.2,30.7,30.27,NNE,26,5.0,10.0,77,0.00,,,0.00,Wunderground v.1.15,2013-03-09 11:35:00,
2013-03-09 06:40:00,37.3,30.7,30.27,NNE,15,5.0,5.0,77,0.00,,,0.00,Wunderground v.1.15,2013-03-09 11:40:00,
2013-03-09 06:45:00,37.4,30.8,30.27,NNE,19,6.0,6.0,77,0.00,,,0.00,Wunderground v.1.15,2013-03-09 11:45:00,
2013-03-09 06:50:00,37.6,30.7,30.27,North,357,6.0,10.0,76,0.00,,,0.00,Wunderground v.1.15,2013-03-09 11:50:00,
2013-03-09 06:55:00,37.8,30.9,30.27,NNE,25,6.0,10.0,76,0.00,,,0.00,Wunderground v.1.15,2013-03-09 11:55:00,
2013-03-09 07:00:00,38.0,30.8,30.27,NNE,13,6.0,9.0,75,0.00,,,0.00,Wunderground v.1.15,2013-03-09 12:00:00,
2013-03-09 07:05:00,38.2,30.6,30.28,North,354,7.0,9.0,74,0.00,,,0.00,Wunderground v.1.15,2013-03-09 12:05:00,
2013-03-09 07:10:00,38.5,30.9,30.28,North,11,7.0,7.0,74,0.00,,,0.00,Wunderground v.1.15,2013-03-09 12:10:00,
2013-03-09 07:15:00,38.7,30.8,30.28,NNE,20,7.0,9.0,73,0.00,,,0.00,Wunderground v.1.15,2013-03-09 12:15:00,
2013-03-09 07:20:00,39.0,31.1,30.28,North,350,7.0,13.0,73,0.00,,,0.00,Wunderground v.1.15,2013-03-09 12:20:00,
2013-03-09 07:25:00,39.3,31.0,30.28,North,350,7.0,13.0,72,0.00,,,0.00,Wunderground v.1.15,2013-03-09 12:25:00,
2013-03-09 07:30:00,39.6,31.0,30.28,NNE,26,7.0,9.0,71,0.00,,,0.00,Wunderground v.1.15,2013-03-09 12:30:00,
2013-03-09 07:40:00,40.1,31.1,30.29,North,9,7.0,10.0,70,0.00,,,0.00,Wunderground v.1.15,2013-03-09 12:40:00,
2013-03-09 07:45:00,40.4,31.0,30.29,NNE,23,7.0,10.0,69,0.00,,,0.00,Wunderground v.1.15,2013-03-09 12:45:00,
2013-03-09 07:50:00,40.8,31.4,30.29,NNW,339,7.0,9.0,69,0.00,,,0.00,Wunderground v.1.15,2013-03-09 12:50:00,
2013-03-09 07:55:00,41.1,31.3,30.28,North,5,7.0,9.0,68,0.00,,,0.00,Wunderground v.1.15,2013-03-09 12:55:00,
2013-03-09 08:00:00,41.4,31.3,30.29,NNE,32,8.0,14.0,67,0.00,,,0.00,Wunderground v.1.15,2013-03-09 13:00:00,
2013-03-09 08:05:00,41.7,31.2,30.29,NNE,23,8.0,14.0,66,0.00,,,0.00,Wunderground v.1.15,2013-03-09 13:05:00,
2013-03-09 08:10:00,42.1,31.9,30.29,NNW,343,8.0,8.0,67,0.00,,,0.00,Wunderground v.1.15,2013-03-09 13:10:00,
2013-03-09 08:15:00,42.3,31.4,30.29,North,1,7.0,14.0,65,0.00,,,0.00,Wunderground v.1.15,2013-03-09 13:15:00,
2013-03-09 08:20:00,42.7,31.4,30.29,NE,37,7.0,14.0,64,0.00,,,0.00,Wunderground v.1.15,2013-03-09 13:20:00,
2013-03-09 08:25:00,42.9,31.6,30.29,NNE,29,7.0,14.0,64,0.00,,,0.00,Wunderground v.1.15,2013-03-09 13:25:00,
2013-03-09 08:30:00,43.2,31.8,30.29,NNE,30,7.0,7.0,64,0.00,,,0.00,Wunderground v.1.15,2013-03-09 13:30:00,
2013-03-09 08:35:00,43.6,31.8,30.29,NNE,22,7.0,9.0,63,0.00,,,0.00,Wunderground v.1.15,2013-03-09 13:35:00,
2013-03-09 08:40:00,43.9,32.1,30.30,NE,39,7.0,14.0,63,0.00,,,0.00,Wunderground v.1.15,2013-03-09 13:40:00,
2013-03-09 08:45:00,44.4,32.2,30.30,ENE,74,6.0,14.0,62,0.00,,,0.00,Wunderground v.1.15,2013-03-09 13:45:00,
2013-03-09 08:50:00,44.9,31.8,30.29,NNE,18,5.0,5.0,60,0.00,,,0.00,Wunderground v.1.15,2013-03-09 13:50:00,
2013-03-09 08:55:00,45.3,31.8,30.29,NE,34,6.0,7.0,59,0.00,,,0.00,Wunderground v.1.15,2013-03-09 13:55:00,
2013-03-09 09:00:00,45.6,31.7,30.29,NNE,20,7.0,7.0,58,0.00,,,0.00,Wunderground v.1.15,2013-03-09 14:00:00,
2013-03-09 09:05:00,46.1,32.1,30.29,NNE,13,7.0,14.0,58,0.00,,,0.00,Wunderground v.1.15,2013-03-09 14:05:00,
2013-03-09 09:15:00,46.8,31.5,30.29,NNE,13,7.0,14.0,55,0.00,,,0.00,Wunderground v.1.15,2013-03-09 14:15:00,
2013-03-09 09:20:00,47.3,31.5,30.29,NNE,18,7.0,7.0,54,0.00,,,0.00,Wunderground v.1.15,2013-03-09 14:20:00,
2013-03-09 09:25:00,47.7,31.9,30.29,NE,44,6.0,9.0,54,0.00,,,0.00,Wunderground v.1.15,2013-03-09 14:25:00,
2013-03-09 09:30:00,48.3,31.5,30.29,NE,39,6.0,6.0,52,0.00,,,0.00,Wunderground v.1.15,2013-03-09 14:30:00,
2013-03-09 09:35:00,48.7,32.3,30.29,North,349,6.0,9.0,53,0.00,,,0.00,Wunderground v.1.15,2013-03-09 14:35:00,
2013-03-09 09:40:00,49.5,32.6,30.29,ENE,70,6.0,14.0,52,0.00,,,0.00,Wunderground v.1.15,2013-03-09 14:40:00,
2013-03-09 09:50:00,50.1,32.2,30.29,NNE,27,6.0,14.0,50,0.00,,,0.00,Wunderground v.1.15,2013-03-09 14:50:00,
2013-03-09 09:55:00,50.2,32.3,30.29,NNW,345,8.0,14.0,50,0.00,,,0.00,Wunderground v.1.15,2013-03-09 14:55:00,
2013-03-09 10:00:00,50.9,32.9,30.29,NE,40,8.0,8.0,50,0.00,,,0.00,Wunderground v.1.15,2013-03-09 15:00:00,
2013-03-09 10:05:00,50.8,31.8,30.29,North,356,7.0,13.0,48,0.00,,,0.00,Wunderground v.1.15,2013-03-09 15:05:00,
2013-03-09 10:10:00,51.3,33.3,30.29,ENE,62,7.0,13.0,50,0.00,,,0.00,Wunderground v.1.15,2013-03-09 15:10:00,
2013-03-09 10:15:00,51.7,33.6,30.28,North,356,6.0,13.0,50,0.00,,,0.00,Wunderground v.1.15,2013-03-09 15:15:00,
2013-03-09 10:20:00,51.7,33.1,30.28,ENE,60,8.0,8.0,49,0.00,,,0.00,Wunderground v.1.15,2013-03-09 15:20:00,
2013-03-09 10:25:00,52.0,32.9,30.28,North,356,8.0,9.0,48,0.00,,,0.00,Wunderground v.1.15,2013-03-09 15:25:00,
2013-03-09 10:30:00,52.2,33.6,30.29,North,351,7.0,13.0,49,0.00,,,0.00,Wunderground v.1.15,2013-03-09 15:30:00,
2013-03-09 10:35:00,52.3,33.7,30.29,NNE,21,8.0,13.0,49,0.00,,,0.00,Wunderground v.1.15,2013-03-09 15:35:00,
2013-03-09 10:40:00,52.6,34.0,30.29,NNW,344,8.0,8.0,49,0.00,,,0.00,Wunderground v.1.15,2013-03-09 15:40:00,
2013-03-09 10:45:00,53.1,34.4,30.29,NNE,26,8.0,9.0,49,0.00,,,0.00,Wunderground v.1.15,2013-03-09 15:45:00,
2013-03-09 10:50:00,53.3,34.1,30.29,NE,38,8.0,8.0,48,0.00,,,0.00,Wunderground v.1.15,2013-03-09 15:50:00,
2013-03-09 10:55:00,53.7,35.5,30.29,North,1,7.0,13.0,50,0.00,,,0.00,Wunderground v.1.15,2013-03-09 15:55:00,
2013-03-09 11:00:00,53.9,35.7,30.29,North,6,8.0,8.0,50,0.00,,,0.00,Wunderground v.1.15,2013-03-09 16:00:00,
2013-03-09 11:05:00,54.1,35.3,30.29,ENE,66,9.0,9.0,49,0.00,,,0.00,Wunderground v.1.15,2013-03-09 16:05:00,
2013-03-09 11:10:00,54.3,35.0,30.29,North,356,7.0,16.0,48,0.00,,,0.00,Wunderground v.1.15,2013-03-09 16:10:00,
2013-03-09 11:15:00,55.0,36.2,30.28,North,351,6.0,16.0,49,0.00,,,0.00,Wunderground v.1.15,2013-03-09 16:15:00,
2013-03-09 11:20:00,55.5,36.1,30.28,NNW,343,7.0,7.0,48,0.00,,,0.00,Wunderground v.1.15,2013-03-09 16:20:00,
2013-03-09 11:25:00,55.7,35.8,30.28,NNE,12,7.0,8.0,47,0.00,,,0.00,Wunderground v.1.15,2013-03-09 16:25:00,
2013-03-09 11:30:00,55.8,35.3,30.28,NNW,335,7.0,16.0,46,0.00,,,0.00,Wunderground v.1.15,2013-03-09 16:30:00,
2013-03-09 11:35:00,56.2,37.8,30.28,NNW,339,7.0,16.0,50,0.00,,,0.00,Wunderground v.1.15,2013-03-09 16:35:00,
2013-03-09 11:40:00,56.6,37.6,30.28,North,6,7.0,7.0,49,0.00,,,0.00,Wunderground v.1.15,2013-03-09 16:40:00,
2013-03-09 11:45:00,56.3,36.8,30.28,NNW,346,7.0,16.0,48,0.00,,,0.00,Wunderground v.1.15,2013-03-09 16:45:00,
2013-03-09 11:50:00,56.8,36.8,30.28,NE,50,6.0,16.0,47,0.00,,,0.00,Wunderground v.1.15,2013-03-09 16:50:00,
2013-03-09 11:55:00,56.8,36.2,30.27,NNE,20,7.0,16.0,46,0.00,,,0.00,Wunderground v.1.15,2013-03-09 16:55:00,
2013-03-09 12:00:00,57.2,36.6,30.27,North,9,7.0,14.0,46,0.00,,,0.00,Wunderground v.1.15,2013-03-09 17:00:00,
2013-03-09 12:05:00,57.2,36.6,30.27,ENE,77,8.0,14.0,46,0.00,,,0.00,Wunderground v.1.15,2013-03-09 17:05:00,
2013-03-09 12:10:00,57.5,36.9,30.27,NE,38,7.0,14.0,46,0.00,,,0.00,Wunderground v.1.15,2013-03-09 17:10:00,
2013-03-09 12:15:00,57.9,36.7,30.27,NE,39,8.0,14.0,45,0.00,,,0.00,Wunderground v.1.15,2013-03-09 17:15:00,
2013-03-09 12:20:00,57.7,37.0,30.27,NNE,15,8.0,8.0,46,0.00,,,0.00,Wunderground v.1.15,2013-03-09 17:20:00,
2013-03-09 12:25:00,58.0,37.9,30.27,NNW,347,7.0,14.0,47,0.00,,,0.00,Wunderground v.1.15,2013-03-09 17:25:00,
2013-03-09 12:30:00,58.2,37.5,30.27,NE,37,8.0,14.0,46,0.00,,,0.00,Wunderground v.1.15,2013-03-09 17:30:00,
2013-03-09 12:35:00,58.1,36.9,30.27,North,359,10.0,14.0,45,0.00,,,0.00,Wunderground v.1.15,2013-03-09 17:35:00,
2013-03-09 12:40:00,58.5,37.8,30.27,ENE,62,9.0,14.0,46,0.00,,,0.00,Wunderground v.1.15,2013-03-09 17:40:00,
2013-03-09 12:45:00,58.7,37.4,30.27,NNE,20,8.0,14.0,45,0.00,,,0.00,Wunderground v.1.15,2013-03-09 17:45:00,
2013-03-09 12:50:00,59.2,38.4,30.26,NE,40,7.0,7.0,46,0.00,,,0.00,Wunderground v.1.15,2013-03-09 17:50:00,
2013-03-09 12:55:00,59.3,37.4,30.26,NNE,22,7.0,14.0,44,0.00,,,0.00,Wunderground v.1.15,2013-03-09 17:55:00,
2013-03-09 13:00:00,59.3,38.5,30.26,ENE,68,6.0,18.0,46,0.00,,,0.00,Wunderground v.1.15,2013-03-09 18:00:00,
2013-03-09 13:05:00,59.4,37.5,30.26,NNE,23,6.0,18.0,44,0.00,,,0.00,Wunderground v.1.15,2013-03-09 18:05:00,
2013-03-09 13:10:00,59.6,37.6,30.25,ENE,72,7.0,7.0,44,0.00,,,0.00,Wunderground v.1.15,2013-03-09 18:10:00,
2013-03-09 13:15:00,60.1,38.7,30.25,North,358,7.0,18.0,45,0.00,,,0.00,Wunderground v.1.15,2013-03-09 18:15:00,
2013-03-09 13:20:00,60.0,38.0,30.25,NW,318,7.0,18.0,44,0.00,,,0.00,Wunderground v.1.15,2013-03-09 18:20:00,
2013-03-09 13:25:00,59.7,37.2,30.25,North,359,8.0,18.0,43,0.00,,,0.00,Wunderground v.1.15,2013-03-09 18:25:00,
2013-03-09 13:30:00,60.0,38.6,30.25,NE,48,7.0,18.0,45,0.00,,,0.00,Wunderground v.1.15,2013-03-09 18:30:00,
2013-03-09 13:35:00,60.1,38.1,30.25,NNE,21,6.0,18.0,44,0.00,,,0.00,Wunderground v.1.15,2013-03-09 18:35:00,
2013-03-09 13:40:00,60.5,39.0,30.25,NE,39,6.0,6.0,45,0.00,,,0.00,Wunderground v.1.15,2013-03-09 18:40:00,
2013-03-09 13:45:00,60.7,37.5,30.24,East,89,7.0,7.0,42,0.00,,,0.00,Wunderground v.1.15,2013-03-09 18:45:00,
2013-03-09 13:50:00,60.5,37.9,30.24,NNW,333,6.0,6.0,43,0.00,,,0.00,Wunderground v.1.15,2013-03-09 18:50:00,
2013-03-09 13:55:00,60.6,38.6,30.24,NNE,30,6.0,18.0,44,0.00,,,0.00,Wunderground v.1.15,2013-03-09 18:55:00,
2013-03-09 14:00:00,60.6,37.4,30.24,NW,321,6.0,6.0,42,0.00,,,0.00,Wunderground v.1.15,2013-03-09 19:00:00,
2013-03-09 14:05:00,60.6,38.0,30.24,NNW,345,5.0,17.0,43,0.00,,,0.00,Wunderground v.1.15,2013-03-09 19:05:00,
2013-03-09 14:10:00,61.1,38.4,30.24,North,352,6.0,17.0,43,0.00,,,0.00,Wunderground v.1.15,2013-03-09 19:10:00,
2013-03-09 14:15:00,60.8,37.5,30.24,North,359,7.0,17.0,42,0.00,,,0.00,Wunderground v.1.15,2013-03-09 19:15:00,
2013-03-09 14:20:00,60.9,37.6,30.24,NNW,338,6.0,6.0,42,0.00,,,0.00,Wunderground v.1.15,2013-03-09 19:20:00,
2013-03-09 14:25:00,61.3,37.4,30.24,NE,42,5.0,10.0,41,0.00,,,0.00,Wunderground v.1.15,2013-03-09 19:25:00,
2013-03-09 14:30:00,61.2,37.9,30.24,North,356,6.0,6.0,42,0.00,,,0.00,Wunderground v.1.15,2013-03-09 19:30:00,
2013-03-09 14:40:00,60.9,38.2,30.24,NNW,334,7.0,7.0,43,0.00,,,0.00,Wunderground v.1.15,2013-03-09 19:40:00,
2013-03-09 14:45:00,61.4,38.7,30.24,NNW,347,6.0,9.0,43,0.00,,,0.00,Wunderground v.1.15,2013-03-09 19:45:00,
2013-03-09 14:50:00,61.5,38.2,30.24,NE,41,6.0,17.0,42,0.00,,,0.00,Wunderground v.1.15,2013-03-09 19:50:00,
2013-03-09 14:55:00,61.5,37.6,30.24,North,4,6.0,17.0,41,0.00,,,0.00,Wunderground v.1.15,2013-03-09 19:55:00,
2013-03-09 15:00:00,61.6,37.7,30.24,NNE,21,6.0,13.0,41,0.00,,,0.00,Wunderground v.1.15,2013-03-09 20:00:00,
2013-03-09 15:05:00,61.4,36.8,30.24,NE,46,7.0,13.0,40,0.00,,,0.00,Wunderground v.1.15,2013-03-09 20:05:00,
2013-03-09 15:10:00,61.5,36.9,30.24,North,1,7.0,13.0,40,0.00,,,0.00,Wunderground v.1.15,2013-03-09 20:10:00,
2013-03-09 15:15:00,61.7,37.7,30.24,ENE,75,6.0,13.0,41,0.00,,,0.00,Wunderground v.1.15,2013-03-09 20:15:00,
2013-03-09 15:20:00,61.7,37.1,30.24,NNE,27,7.0,13.0,40,0.00,,,0.00,Wunderground v.1.15,2013-03-09 20:20:00,
2013-03-09 15:25:00,61.6,37.0,30.24,NNE,13,8.0,13.0,40,0.00,,,0.00,Wunderground v.1.15,2013-03-09 20:25:00,
2013-03-09 15:30:00,61.9,38.5,30.23,NNW,346,6.0,6.0,42,0.00,,,0.00,Wunderground v.1.15,2013-03-09 20:30:00,
2013-03-09 15:35:00,62.1,38.7,30.23,North,352,6.0,13.0,42,0.00,,,0.00,Wunderground v.1.15,2013-03-09 20:35:00,
2013-03-09 15:40:00,62.2,38.2,30.23,North,356,6.0,13.0,41,0.00,,,0.00,Wunderground v.1.15,2013-03-09 20:40:00,
2013-03-09 15:45:00,62.5,37.8,30.23,NNE,26,5.0,13.0,40,0.00,,,0.00,Wunderground v.1.15,2013-03-09 20:45:00,
2013-03-09 15:50:00,62.5,37.2,30.23,North,11,5.0,13.0,39,0.00,,,0.00,Wunderground v.1.15,2013-03-09 20:50:00,
2013-03-09 15:55:00,62.5,37.8,30.23,NW,307,5.0,13.0,40,0.00,,,0.00,Wunderground v.1.15,2013-03-09 20:55:00,
2013-03-09 16:00:00,62.3,37.7,30.23,North,349,6.0,14.0,40,0.00,,,0.00,Wunderground v.1.15,2013-03-09 21:00:00,
2013-03-09 16:10:00,62.3,37.7,30.23,NNW,331,4.0,14.0,40,0.00,,,0.00,Wunderground v.1.15,2013-03-09 21:10:00,
2013-03-09 16:15:00,62.5,38.5,30.23,NNW,329,4.0,14.0,41,0.00,,,0.00,Wunderground v.1.15,2013-03-09 21:15:00,
2013-03-09 16:20:00,62.4,37.7,30.23,NNE,25,5.0,14.0,40,0.00,,,0.00,Wunderground v.1.15,2013-03-09 21:20:00,
2013-03-09 16:25:00,62.3,37.7,30.23,NNE,30,5.0,14.0,40,0.00,,,0.00,Wunderground v.1.15,2013-03-09 21:25:00,
2013-03-09 16:30:00,62.2,36.9,30.22,East,99,3.0,3.0,39,0.00,,,0.00,Wunderground v.1.15,2013-03-09 21:30:00,
2013-03-09 16:35:00,62.1,37.5,30.22,NNW,339,4.0,4.0,40,0.00,,,0.00,Wunderground v.1.15,2013-03-09 21:35:00,
2013-03-09 16:40:00,62.2,37.6,30.22,NE,46,5.0,5.0,40,0.00,,,0.00,Wunderground v.1.15,2013-03-09 21:40:00,
2013-03-09 16:45:00,62.0,37.4,30.22,NNE,20,4.0,6.0,40,0.00,,,0.00,Wunderground v.1.15,2013-03-09 21:45:00,
2013-03-09 16:50:00,61.9,36.7,30.23,NNE,25,4.0,4.0,39,0.00,,,0.00,Wunderground v.1.15,2013-03-09 21:50:00,
2013-03-09 16:55:00,61.9,37.3,30.22,NNE,27,4.0,5.0,40,0.00,,,0.00,Wunderground v.1.15,2013-03-09 21:55:00,
2013-03-09 17:00:00,62.0,37.4,30.23,NNW,343,4.0,9.0,40,0.00,,,0.00,Wunderground v.1.15,2013-03-09 22:00:00,
2013-03-09 17:05:00,61.9,37.9,30.23,NE,51,5.0,9.0,41,0.00,,,0.00,Wunderground v.1.15,2013-03-09 22:05:00,
2013-03-09 17:10:00,61.8,37.2,30.23,North,5,5.0,5.0,40,0.00,,,0.00,Wunderground v.1.15,2013-03-09 22:10:00,
2013-03-09 17:20:00,61.2,45.4,30.23,West,262,2.0,9.0,56,0.00,,,0.00,Wunderground v.1.15,2013-03-09 22:20:00,
2013-03-09 17:25:00,59.9,46.4,30.23,West,280,1.0,9.0,61,0.00,,,0.00,Wunderground v.1.15,2013-03-09 22:25:00,
2013-03-09 17:30:00,59.2,46.6,30.24,WNW,283,1.0,9.0,63,0.00,,,0.00,Wunderground v.1.15,2013-03-09 22:30:00,
2013-03-09 17:35:00,58.0,46.3,30.24,SW,214,2.0,9.0,65,0.00,,,0.00,Wunderground v.1.15,2013-03-09 22:35:00,
2013-03-09 17:40:00,57.5,46.2,30.24,SW,226,2.0,2.0,66,0.00,,,0.00,Wunderground v.1.15,2013-03-09 22:40:00,
2013-03-09 17:45:00,57.1,45.4,30.24,NNW,343,2.0,9.0,65,0.00,,,0.00,Wunderground v.1.15,2013-03-09 22:45:00,
2013-03-09 17:50:00,56.7,45.5,30.25,WNW,284,2.0,9.0,66,0.00,,,0.00,Wunderground v.1.15,2013-03-09 22:50:00,
2013-03-09 17:55:00,56.2,46.2,30.25,East,90,2.0,9.0,69,0.00,,,0.00,Wunderground v.1.15,2013-03-09 22:55:00,
2013-03-09 18:00:00,55.5,45.5,30.25,NNE,27,2.0,8.0,69,0.00,,,0.00,Wunderground v.1.15,2013-03-09 23:00:00,
2013-03-09 18:05:00,55.0,44.2,30.25,West,262,2.0,8.0,67,0.00,,,0.00,Wunderground v.1.15,2013-03-09 23:05:00,
2013-03-09 18:10:00,54.6,43.9,30.25,WNW,294,1.0,8.0,67,0.00,,,0.00,Wunderground v.1.15,2013-03-09 23:10:00,
2013-03-09 18:15:00,54.4,43.3,30.25,WNW,293,1.0,8.0,66,0.00,,,0.00,Wunderground v.1.15,2013-03-09 23:15:00,
2013-03-09 18:25:00,53.9,44.0,30.26,SW,235,1.0,8.0,69,0.00,,,0.00,Wunderground v.1.15,2013-03-09 23:25:00,
2013-03-09 18:30:00,53.6,45.5,30.26,West,264,1.0,1.0,74,0.00,,,0.00,Wunderground v.1.15,2013-03-09 23:30:00,
2013-03-09 18:35:00,53.0,45.3,30.26,WNW,288,0.0,2.0,75,0.00,,,0.00,Wunderground v.1.15,2013-03-09 23:35:00,
2013-03-09 18:40:00,52.5,44.8,30.26,NW,305,1.0,1.0,75,0.00,,,0.00,Wunderground v.1.15,2013-03-09 23:40:00,
2013-03-09 18:45:00,52.1,44.1,30.26,SE,131,1.0,8.0,74,0.00,,,0.00,Wunderground v.1.15,2013-03-09 23:45:00,
2013-03-09 18:50:00,52.0,44.3,30.27,West,273,0.0,8.0,75,0.00,,,0.00,Wunderground v.1.15,2013-03-09 23:50:00,
2013-03-09 18:55:00,51.8,44.8,30.27,SW,233,1.0,8.0,77,0.00,,,0.00,Wunderground v.1.15,2013-03-09 23:55:00,
2013-03-09 19:00:00,51.7,45.7,30.27,West,259,1.0,1.0,80,0.00,,,0.00,Wunderground v.1.15,2013-03-10 00:00:00,
2013-03-09 19:10:00,51.2,45.6,30.27,NE,39,1.0,4.0,81,0.00,,,0.00,Wunderground v.1.15,2013-03-10 00:10:00,
2013-03-09 19:15:00,51.0,45.0,30.27,West,270,1.0,4.0,80,0.00,,,0.00,Wunderground v.1.15,2013-03-10 00:15:00,
2013-03-09 19:20:00,50.8,44.5,30.27,WSW,249,1.0,4.0,79,0.00,,,0.00,Wunderground v.1.15,2013-03-10 00:20:00,
2013-03-09 19:25:00,50.6,44.0,30.27,WSW,250,1.0,4.0,78,0.00,,,0.00,Wunderground v.1.15,2013-03-10 00:25:00,
2013-03-09 19:30:00,50.5,43.6,30.27,West,280,1.0,4.0,77,0.00,,,0.00,Wunderground v.1.15,2013-03-10 00:30:00,
2013-03-09 19:35:00,50.5,43.6,30.28,West,274,1.0,4.0,77,0.00,,,0.00,Wunderground v.1.15,2013-03-10 00:35:00,
2013-03-09 19:40:00,50.5,43.9,30.28,West,269,1.0,1.0,78,0.00,,,0.00,Wunderground v.1.15,2013-03-10 00:40:00,
2013-03-09 19:45:00,50.4,44.5,30.27,West,267,1.0,4.0,80,0.00,,,0.00,Wunderground v.1.15,2013-03-10 00:45:00,
2013-03-09 19:50:00,50.2,44.3,30.27,West,273,0.0,4.0,80,0.00,,,0.00,Wunderground v.1.15,2013-03-10 00:50:00,
2013-03-09 20:05:00,50.2,45.6,30.27,WNW,285,1.0,4.0,84,0.00,,,0.00,Wunderground v.1.15,2013-03-10 01:05:00,
2013-03-09 20:10:00,50.1,45.5,30.27,WNW,288,1.0,4.0,84,0.00,,,0.00,Wunderground v.1.15,2013-03-10 01:10:00,
2013-03-09 20:15:00,50.1,45.5,30.27,WNW,293,1.0,4.0,84,0.00,,,0.00,Wunderground v.1.15,2013-03-10 01:15:00,
2013-03-09 20:20:00,50.1,45.5,30.27,WNW,294,1.0,4.0,84,0.00,,,0.00,Wunderground v.1.15,2013-03-10 01:20:00,
2013-03-09 20:25:00,50.0,45.0,30.27,WNW,300,1.0,4.0,83,0.00,,,0.00,Wunderground v.1.15,2013-03-10 01:25:00,
2013-03-09 20:30:00,49.9,45.3,30.27,WNW,300,1.0,4.0,84,0.00,,,0.00,Wunderground v.1.15,2013-03-10 01:30:00,
2013-03-09 20:35:00,49.6,45.3,30.27,WNW,300,1.0,4.0,85,0.00,,,0.00,Wunderground v.1.15,2013-03-10 01:35:00,
2013-03-09 20:40:00,49.4,45.1,30.27,WNW,300,1.0,4.0,85,0.00,,,0.00,Wunderground v.1.15,2013-03-10 01:40:00,
2013-03-09 20:45:00,49.2,44.9,30.28,WNW,300,1.0,4.0,85,0.00,,,0.00,Wunderground v.1.15,2013-03-10 01:45:00,
2013-03-09 20:50:00,49.1,44.5,30.28,WNW,299,1.0,4.0,84,0.00,,,0.00,Wunderground v.1.15,2013-03-10 01:50:00,
2013-03-09 20:55:00,48.9,44.3,30.28,WNW,300,1.0,4.0,84,0.00,,,0.00,Wunderground v.1.15,2013-03-10 01:55:00,
2013-03-09 21:00:00,48.9,44.3,30.28,WNW,300,1.0,3.0,84,0.00,,,0.00,Wunderground v.1.15,2013-03-10 02:00:00,
2013-03-09 21:10:00,48.7,44.1,30.28,NW,304,1.0,3.0,84,0.00,,,0.00,Wunderground v.1.15,2013-03-10 02:10:00,
2013-03-09 21:15:00,48.7,43.8,30.28,NW,315,1.0,3.0,83,0.00,,,0.00,Wunderground v.1.15,2013-03-10 02:15:00,
2013-03-09 21:20:00,48.7,44.1,30.28,NW,314,1.0,3.0,84,0.00,,,0.00,Wunderground v.1.15,2013-03-10 02:20:00,
2013-03-09 21:25:00,48.4,43.5,30.28,NW,314,1.0,3.0,83,0.00,,,0.00,Wunderground v.1.15,2013-03-10 02:25:00,
2013-03-09 21:30:00,48.3,43.1,30.28,NW,314,1.0,3.0,82,0.00,,,0.00,Wunderground v.1.15,2013-03-10 02:30:00,
2013-03-09 21:35:00,48.5,43.3,30.28,NW,315,0.0,3.0,82,0.00,,,0.00,Wunderground v.1.15,2013-03-10 02:35:00,
2013-03-09 21:40:00,48.4,43.2,30.28,NW,314,0.0,3.0,82,0.00,,,0.00,Wunderground v.1.15,2013-03-10 02:40:00,
2013-03-09 21:45:00,48.2,43.0,30.28,NW,314,0.0,3.0,82,0.00,,,0.00,Wunderground v.1.15,2013-03-10 02:45:00,
2013-03-09 21:50:00,48.0,43.1,30.28,NW,315,0.0,3.0,83,0.00,,,0.00,Wunderground v.1.15,2013-03-10 02:50:00,
2013-03-09 21:55:00,47.9,43.9,30.28,NW,315,0.0,3.0,86,0.00,,,0.00,Wunderground v.1.15,2013-03-10 02:55:00,
2013-03-09 22:00:00,47.5,43.5,30.28,NW,314,0.0,2.0,86,0.00,,,0.00,Wunderground v.1.15,2013-03-10 03:00:00,
2013-03-09 22:05:00,47.0,43.3,30.28,NW,315,1.0,2.0,87,0.00,,,0.00,Wunderground v.1.15,2013-03-10 03:05:00,
2013-03-09 22:10:00,46.6,42.9,30.28,NW,317,1.0,1.0,87,0.00,,,0.00,Wunderground v.1.15,2013-03-10 03:10:00,
2013-03-09 22:15:00,46.5,43.1,30.28,NW,318,0.0,2.0,88,0.00,,,0.00,Wunderground v.1.15,2013-03-10 03:15:00,
2013-03-09 22:20:00,46.2,42.8,30.28,NW,313,1.0,2.0,88,0.00,,,0.00,Wunderground v.1.15,2013-03-10 03:20:00,
2013-03-09 22:25:00,45.7,42.3,30.28,NW,313,1.0,2.0,88,0.00,,,0.00,Wunderground v.1.15,2013-03-10 03:25:00,
2013-03-09 22:30:00,45.5,42.2,30.28,NW,313,1.0,2.0,88,0.00,,,0.00,Wunderground v.1.15,2013-03-10 03:30:00,
2013-03-09 22:35:00,45.6,42.3,30.28,North,354,1.0,2.0,88,0.00,,,0.00,Wunderground v.1.15,2013-03-10 03:35:00,
2013-03-09 22:45:00,45.8,42.2,30.28,NW,321,0.0,2.0,87,0.00,,,0.00,Wunderground v.1.15,2013-03-10 03:45:00,
2013-03-09 22:50:00,46.0,42.0,30.28,WNW,299,1.0,2.0,86,0.00,,,0.00,Wunderground v.1.15,2013-03-10 03:50:00,
2013-03-09 22:55:00,45.8,41.9,30.28,WNW,300,2.0,2.0,86,0.00,,,0.00,Wunderground v.1.15,2013-03-10 03:55:00,
2013-03-09 23:00:00,45.2,41.3,30.29,West,281,2.0,2.0,86,0.00,,,0.00,Wunderground v.1.15,2013-03-10 04:00:00,
2013-03-09 23:05:00,44.7,41.1,30.29,West,281,1.0,2.0,87,0.00,,,0.00,Wunderground v.1.15,2013-03-10 04:05:00,
2013-03-09 23:10:00,44.5,40.9,30.29,West,281,0.0,1.0,87,0.00,,,0.00,Wunderground v.1.15,2013-03-10 04:10:00,
2013-03-09 23:15:00,44.5,40.9,30.29,West,281,0.0,1.0,87,0.00,,,0.00,Wunderground v.1.15,2013-03-10 04:15:00,
2013-03-09 23:20:00,44.7,41.1,30.28,North,6,0.0,1.0,87,0.00,,,0.00,Wunderground v.1.15,2013-03-10 04:20:00,
2013-03-09 23:25:00,45.1,41.2,30.28,ENE,70,1.0,1.0,86,0.00,,,0.00,Wunderground v.1.15,2013-03-10 04:25:00,
2013-03-09 23:30:00,45.4,41.2,30.28,ENE,71,0.0,1.0,85,0.00,,,0.00,Wunderground v.1.15,2013-03-10 04:30:00,
2013-03-09 23:35:00,45.5,41.3,30.28,ENE,71,0.0,1.0,85,0.00,,,0.00,Wunderground v.1.15,2013-03-10 04:35:00,
2013-03-09 23:40:00,45.7,41.8,30.28,NE,47,1.0,1.0,86,0.00,,,0.00,Wunderground v.1.15,2013-03-10 04:40:00,
2013-03-09 23:50:00,45.4,41.8,30.29,NE,51,1.0,1.0,87,0.00,,,0.00,Wunderground v.1.15,2013-03-10 04:50:00,
2013-03-09 23:55:00,45.1,41.5,30.29,NE,51,0.0,1.0,87,0.00,,,0.00,Wunderground v.1.15,2013-03-10 04:55:00,